Time,TemperatureF,DewpointF,PressureIn,WindDirection,WindDirectionDegrees,WindSpeedMPH,WindSpeedGustMPH,Humidity,HourlyPrecipIn,Conditions,Clouds,dailyrainin,SoftwareType,DateUTC
2013-01-14 00:04:00,62.0,60.0,30.10,SE,139,0.0,0.0,92,0.00,,,0.00,,2013-01-14 05:04:00,
2013-01-14 00:12:00,62.0,60.0,30.10,SE,139,0.0,0.0,92,0.00,,,0.00,,2013-01-14 05:12:00,
2013-01-14 00:22:00,61.0,59.0,30.10,SE,139,0.0,0.0,92,0.00,,,0.00,,2013-01-14 05:22:00,
2013-01-14 00:33:00,61.0,59.0,30.11,SE,139,0.0,0.0,92,0.00,,,0.00,,2013-01-14 05:33:00,
2013-01-14 00:42:00,61.0,59.0,30.11,SE,139,0.0,0.0,92,0.00,,,0.00,,2013-01-14 05:42:00,
2013-01-14 00:53:00,60.0,58.0,30.11,SE,139,0.0,0.0,92,0.00,,,0.00,,2013-01-14 05:53:00,
2013-01-14 01:03:00,60.0,58.0,30.11,SE,139,0.0,0.0,92,0.00,,,0.00,,2013-01-14 06:03:00,
2013-01-14 01:12:00,60.0,58.0,30.11,SE,139,0.0,0.0,92,0.00,,,0.00,,2013-01-14 06:12:00,
2013-01-14 01:22:00,59.0,57.0,30.11,SE,139,0.0,0.0,92,0.00,,,0.00,,2013-01-14 06:22:00,
2013-01-14 01:33:00,59.0,57.0,30.12,SE,139,0.0,0.0,93,0.00,,,0.00,,2013-01-14 06:33:00,
2013-01-14 01:43:00,59.0,57.0,30.12,SE,139,0.0,0.0,93,0.00,,,0.00,,2013-01-14 06:43:00,
2013-01-14 01:53:00,59.0,57.0,30.11,SE,139,0.0,0.0,93,0.00,,,0.00,,2013-01-14 06:53:00,
2013-01-14 02:02:00,59.0,57.0,30.11,SE,139,0.0,0.0,93,0.00,,,0.00,,2013-01-14 07:02:00,
2013-01-14 02:12:00,59.0,57.0,30.11,SE,139,0.0,0.0,93,0.00,,,0.00,,2013-01-14 07:12:00,
2013-01-14 02:23:00,58.0,56.0,30.11,SE,139,0.0,0.0,93,0.00,,,0.00,,2013-01-14 07:23:00,
2013-01-14 02:33:00,58.0,56.0,30.11,SE,139,0.0,0.0,94,0.00,,,0.00,,2013-01-14 07:33:00,
2013-01-14 02:42:00,58.0,56.0,30.11,SE,139,0.0,0.0,94,0.00,,,0.00,,2013-01-14 07:42:00,
2013-01-14 02:53:00,58.0,56.0,30.11,SE,139,0.0,0.0,94,0.00,,,0.00,,2013-01-14 07:53:00,
2013-01-14 03:02:00,58.0,56.0,30.10,SE,139,0.0,0.0,94,0.00,,,0.00,,2013-01-14 08:02:00,
2013-01-14 03:12:00,58.0,56.0,30.10,SE,139,0.0,0.0,94,0.00,,,0.00,,2013-01-14 08:12:00,
2013-01-14 03:22:00,58.0,56.0,30.10,SE,139,0.0,0.0,94,0.00,,,0.00,,2013-01-14 08:22:00,
2013-01-14 03:33:00,58.0,56.0,30.10,SE,139,0.0,0.0,94,0.00,,,0.00,,2013-01-14 08:33:00,
2013-01-14 03:42:00,58.0,56.0,30.10,SE,139,0.0,0.0,94,0.00,,,0.00,,2013-01-14 08:42:00,
2013-01-14 03:53:00,57.0,55.0,30.10,SE,139,0.0,0.0,94,0.00,,,0.00,,2013-01-14 08:53:00,
2013-01-14 04:02:00,57.0,55.0,30.10,SE,139,0.0,0.0,94,0.00,,,0.00,,2013-01-14 09:02:00,
2013-01-14 04:12:00,57.0,55.0,30.10,SE,139,0.0,0.0,94,0.00,,,0.00,,2013-01-14 09:12:00,
2013-01-14 04:23:00,57.0,55.0,30.10,SE,139,0.0,0.0,94,0.00,,,0.00,,2013-01-14 09:23:00,
2013-01-14 04:33:00,57.0,55.0,30.10,SE,139,0.0,0.0,94,0.00,,,0.00,,2013-01-14 09:33:00,
2013-01-14 04:43:00,57.0,55.0,30.10,SE,139,0.0,0.0,94,0.00,,,0.00,,2013-01-14 09:43:00,
2013-01-14 04:53:00,58.0,57.0,30.10,SE,139,0.0,0.0,95,0.00,,,0.00,,2013-01-14 09:53:00,
2013-01-14 05:02:00,58.0,57.0,30.10,SE,139,0.0,0.0,95,0.00,,,0.00,,2013-01-14 10:02:00,
2013-01-14 05:12:00,58.0,57.0,30.10,SE,139,0.0,0.0,95,0.00,,,0.00,,2013-01-14 10:12:00,
2013-01-14 05:23:00,59.0,58.0,30.10,SE,139,0.0,0.0,95,0.00,,,0.00,,2013-01-14 10:23:00,
2013-01-14 05:32:00,59.0,58.0,30.11,SE,139,0.0,0.0,95,0.00,,,0.00,,2013-01-14 10:32:00,
2013-01-14 05:42:00,59.0,58.0,30.11,SE,139,0.0,0.0,95,0.00,,,0.00,,2013-01-14 10:42:00,
2013-01-14 05:53:00,59.0,58.0,30.11,SE,139,0.0,0.0,95,0.00,,,0.00,,2013-01-14 10:53:00,
2013-01-14 06:02:00,59.0,58.0,30.10,SE,139,0.0,0.0,95,0.00,,,0.00,,2013-01-14 11:02:00,
2013-01-14 06:12:00,59.0,58.0,30.10,SE,139,0.0,0.0,95,0.00,,,0.00,,2013-01-14 11:12:00,
2013-01-14 06:22:00,58.0,57.0,30.10,SE,139,0.0,0.0,95,0.00,,,0.00,,2013-01-14 11:22:00,
2013-01-14 06:33:00,58.0,57.0,30.10,SE,139,0.0,0.0,95,0.00,,,0.00,,2013-01-14 11:33:00,
2013-01-14 06:43:00,58.0,57.0,30.10,SE,139,0.0,0.0,95,0.00,,,0.00,,2013-01-14 11:43:00,
2013-01-14 06:53:00,58.0,57.0,30.11,SE,139,0.0,0.0,95,0.00,,,0.00,,2013-01-14 11:53:00,
2013-01-14 07:03:00,58.0,57.0,30.11,SE,139,0.0,0.0,95,0.00,,,0.00,,2013-01-14 12:03:00,
2013-01-14 07:12:00,58.0,57.0,30.11,SE,139,0.0,0.0,95,0.00,,,0.00,,2013-01-14 12:12:00,
2013-01-14 07:23:00,58.0,57.0,30.12,SE,139,0.0,0.0,95,0.00,,,0.00,,2013-01-14 12:23:00,
2013-01-14 07:33:00,58.0,57.0,30.12,SE,139,0.0,0.0,95,0.00,,,0.00,,2013-01-14 12:33:00,
2013-01-14 07:43:00,58.0,57.0,30.12,SE,139,0.0,0.0,95,0.00,,,0.00,,2013-01-14 12:43:00,
2013-01-14 07:53:00,58.0,57.0,30.12,SE,139,0.0,0.0,95,0.00,,,0.00,,2013-01-14 12:53:00,
2013-01-14 08:03:00,58.0,57.0,30.12,SE,139,0.0,0.0,95,0.00,,,0.00,,2013-01-14 13:03:00,
2013-01-14 08:12:00,58.0,57.0,30.12,SE,139,0.0,0.0,95,0.00,,,0.00,,2013-01-14 13:12:00,
2013-01-14 08:23:00,58.0,57.0,30.12,SE,139,0.0,0.0,95,0.00,,,0.00,,2013-01-14 13:23:00,
2013-01-14 08:33:00,59.0,58.0,30.13,SE,139,0.0,0.0,96,0.00,,,0.00,,2013-01-14 13:33:00,
2013-01-14 08:43:00,59.0,58.0,30.13,SE,139,0.0,0.0,96,0.00,,,0.00,,2013-01-14 13:43:00,
2013-01-14 08:53:00,64.0,63.0,30.13,SSW,212,0.0,1.0,96,0.00,,,0.00,,2013-01-14 13:53:00,
2013-01-14 09:03:00,65.0,64.0,30.14,SE,139,0.0,1.0,96,0.00,,,0.00,,2013-01-14 14:03:00,
2013-01-14 09:13:00,65.0,64.0,30.14,SE,139,0.0,1.0,96,0.00,,,0.00,,2013-01-14 14:13:00,
2013-01-14 09:23:00,69.0,65.0,30.14,NE,39,0.0,3.0,87,0.00,,,0.00,,2013-01-14 14:23:00,
2013-01-14 09:33:00,71.0,66.0,30.14,SE,136,0.0,4.0,84,0.00,,,0.00,,2013-01-14 14:33:00,
2013-01-14 09:43:00,71.0,66.0,30.14,SE,136,0.0,4.0,84,0.00,,,0.00,,2013-01-14 14:43:00,
2013-01-14 09:53:00,74.0,67.0,30.14,SE,139,2.0,5.0,78,0.00,,,0.00,,2013-01-14 14:53:00,
2013-01-14 10:03:00,75.0,67.0,30.15,ENE,65,0.0,5.0,75,0.00,,,0.00,,2013-01-14 15:03:00,
2013-01-14 10:12:00,75.0,67.0,30.15,ENE,65,0.0,5.0,75,0.00,,,0.00,,2013-01-14 15:12:00,
2013-01-14 10:23:00,77.0,67.0,30.15,ENE,61,0.0,4.0,71,0.00,,,0.00,,2013-01-14 15:23:00,
2013-01-14 10:33:00,78.0,67.0,30.15,East,100,1.0,4.0,70,0.00,,,0.00,,2013-01-14 15:33:00,
2013-01-14 10:43:00,78.0,67.0,30.15,East,100,1.0,4.0,70,0.00,,,0.00,,2013-01-14 15:43:00,
2013-01-14 10:53:00,78.0,67.0,30.14,ENE,67,0.0,4.0,68,0.00,,,0.00,,2013-01-14 15:53:00,
2013-01-14 11:03:00,78.0,66.0,30.14,NNE,15,0.0,7.0,66,0.00,,,0.00,,2013-01-14 16:03:00,
2013-01-14 11:12:00,78.0,66.0,30.14,NNE,15,0.0,7.0,66,0.00,,,0.00,,2013-01-14 16:12:00,
2013-01-14 11:23:00,79.0,66.0,30.14,South,188,1.0,5.0,64,0.00,,,0.00,,2013-01-14 16:23:00,
2013-01-14 11:33:00,80.0,65.0,30.14,South,190,2.0,6.0,61,0.00,,,0.00,,2013-01-14 16:33:00,
2013-01-14 11:43:00,80.0,65.0,30.14,South,190,2.0,6.0,61,0.00,,,0.00,,2013-01-14 16:43:00,
2013-01-14 11:53:00,80.0,65.0,30.13,SE,142,1.0,6.0,61,0.00,,,0.00,,2013-01-14 16:53:00,
2013-01-14 12:03:00,79.0,66.0,30.12,NE,45,2.0,7.0,64,0.00,,,0.00,,2013-01-14 17:03:00,
2013-01-14 12:12:00,79.0,66.0,30.12,NE,45,2.0,7.0,64,0.00,,,0.00,,2013-01-14 17:12:00,
2013-01-14 12:23:00,82.0,67.0,30.11,SW,223,0.0,4.0,60,0.00,,,0.00,,2013-01-14 17:23:00,
2013-01-14 12:33:00,81.0,65.0,30.11,South,173,2.0,7.0,59,0.00,,,0.00,,2013-01-14 17:33:00,
2013-01-14 12:43:00,81.0,65.0,30.11,South,173,2.0,7.0,59,0.00,,,0.00,,2013-01-14 17:43:00,
2013-01-14 12:54:00,82.0,65.0,30.10,SSW,198,2.0,5.0,57,0.00,,,0.00,,2013-01-14 17:54:00,
2013-01-14 13:03:00,82.0,66.0,30.10,East,94,2.0,6.0,59,0.00,,,0.00,,2013-01-14 18:03:00,
2013-01-14 13:13:00,81.0,65.0,30.10,SW,234,2.0,6.0,59,0.00,,,0.00,,2013-01-14 18:13:00,
2013-01-14 13:23:00,81.0,65.0,30.10,SW,234,2.0,6.0,59,0.00,,,0.00,,2013-01-14 18:23:00,
2013-01-14 13:33:00,80.0,65.0,30.10,ENE,59,0.0,5.0,60,0.00,,,0.00,,2013-01-14 18:33:00,
2013-01-14 13:43:00,80.0,65.0,30.10,ENE,59,0.0,5.0,60,0.00,,,0.00,,2013-01-14 18:43:00,
2013-01-14 13:52:00,80.0,65.0,30.09,SSE,163,0.0,4.0,61,0.00,,,0.00,,2013-01-14 18:52:00,
2013-01-14 14:03:00,80.0,65.0,30.09,ESE,109,2.0,5.0,60,0.00,,,0.00,,2013-01-14 19:03:00,
2013-01-14 14:12:00,80.0,65.0,30.09,ESE,109,2.0,5.0,60,0.00,,,0.00,,2013-01-14 19:12:00,
2013-01-14 14:22:00,80.0,65.0,30.08,SSE,163,0.0,5.0,60,0.00,,,0.00,,2013-01-14 19:22:00,
2013-01-14 14:33:00,81.0,65.0,30.08,SSE,159,2.0,5.0,58,0.00,,,0.00,,2013-01-14 19:33:00,
2013-01-14 14:43:00,81.0,65.0,30.08,SSE,159,2.0,5.0,58,0.00,,,0.00,,2013-01-14 19:43:00,
2013-01-14 14:53:00,82.0,65.0,30.08,NE,49,0.0,3.0,57,0.00,,,0.00,,2013-01-14 19:53:00,
2013-01-14 15:03:00,81.0,65.0,30.08,SSE,150,0.0,3.0,58,0.00,,,0.00,,2013-01-14 20:03:00,
2013-01-14 15:13:00,81.0,65.0,30.08,SSE,150,0.0,3.0,58,0.00,,,0.00,,2013-01-14 20:13:00,
2013-01-14 15:23:00,83.0,66.0,30.08,ESE,117,1.0,2.0,56,0.00,,,0.00,,2013-01-14 20:23:00,
2013-01-14 15:33:00,82.0,65.0,30.09,SE,130,1.0,5.0,57,0.00,,,0.00,,2013-01-14 20:33:00,
2013-01-14 15:43:00,82.0,65.0,30.09,SE,130,1.0,5.0,57,0.00,,,0.00,,2013-01-14 20:43:00,
2013-01-14 15:53:00,82.0,65.0,30.09,ESE,111,2.0,3.0,56,0.00,,,0.00,,2013-01-14 20:53:00,
2013-01-14 16:03:00,82.0,65.0,30.09,SSW,196,2.0,5.0,56,0.00,,,0.00,,2013-01-14 21:03:00,
2013-01-14 16:12:00,82.0,65.0,30.09,SSW,196,2.0,5.0,56,0.00,,,0.00,,2013-01-14 21:12:00,
2013-01-14 16:23:00,82.0,65.0,30.09,ENE,61,0.0,2.0,57,0.00,,,0.00,,2013-01-14 21:23:00,
2013-01-14 16:33:00,82.0,64.0,30.09,SSE,149,4.0,8.0,54,0.00,,,0.00,,2013-01-14 21:33:00,
2013-01-14 16:43:00,82.0,64.0,30.09,SSE,149,4.0,8.0,54,0.00,,,0.00,,2013-01-14 21:43:00,
2013-01-14 16:53:00,82.0,65.0,30.10,SSE,151,2.0,5.0,56,0.00,,,0.00,,2013-01-14 21:53:00,
2013-01-14 17:03:00,81.0,64.0,30.10,South,184,2.0,5.0,57,0.00,,,0.00,,2013-01-14 22:03:00,
2013-01-14 17:12:00,81.0,64.0,30.10,South,184,2.0,5.0,57,0.00,,,0.00,,2013-01-14 22:12:00,
2013-01-14 17:23:00,78.0,64.0,30.10,South,170,0.0,0.0,63,0.00,,,0.00,,2013-01-14 22:23:00,
2013-01-14 17:33:00,78.0,65.0,30.10,South,170,1.0,1.0,65,0.00,,,0.00,,2013-01-14 22:33:00,
2013-01-14 17:43:00,78.0,65.0,30.10,South,170,1.0,1.0,65,0.00,,,0.00,,2013-01-14 22:43:00,
2013-01-14 17:53:00,77.0,64.0,30.11,SSE,157,0.0,3.0,65,0.00,,,0.00,,2013-01-14 22:53:00,
2013-01-14 18:03:00,76.0,64.0,30.11,SSE,156,0.0,3.0,66,0.00,,,0.00,,2013-01-14 23:03:00,
2013-01-14 18:12:00,76.0,64.0,30.11,SSE,156,0.0,3.0,66,0.00,,,0.00,,2013-01-14 23:12:00,
2013-01-14 18:23:00,75.0,65.0,30.12,SSE,156,0.0,0.0,71,0.00,,,0.00,,2013-01-14 23:23:00,
2013-01-14 18:33:00,74.0,65.0,30.12,SSE,156,0.0,0.0,73,0.00,,,0.00,,2013-01-14 23:33:00,
2013-01-14 18:43:00,74.0,65.0,30.12,SSE,156,0.0,0.0,73,0.00,,,0.00,,2013-01-14 23:43:00,
2013-01-14 18:53:00,72.0,64.0,30.13,SSE,156,0.0,0.0,76,0.00,,,0.00,,2013-01-14 23:53:00,
2013-01-14 19:03:00,71.0,64.0,30.13,SSE,156,0.0,0.0,78,0.00,,,0.00,,2013-01-15 00:03:00,
2013-01-14 19:12:00,71.0,64.0,30.13,SSE,156,0.0,0.0,78,0.00,,,0.00,,2013-01-15 00:12:00,
2013-01-14 19:23:00,70.0,64.0,30.13,SSE,156,0.0,0.0,80,0.00,,,0.00,,2013-01-15 00:23:00,
2013-01-14 19:33:00,70.0,64.0,30.13,SSE,156,0.0,0.0,81,0.00,,,0.00,,2013-01-15 00:33:00,
2013-01-14 19:43:00,70.0,64.0,30.13,SSE,156,0.0,0.0,81,0.00,,,0.00,,2013-01-15 00:43:00,
2013-01-14 19:53:00,69.0,63.0,30.14,SSE,156,0.0,0.0,82,0.00,,,0.00,,2013-01-15 00:53:00,
2013-01-14 20:02:00,68.0,63.0,30.14,SSE,156,0.0,0.0,83,0.00,,,0.00,,2013-01-15 01:02:00,
2013-01-14 20:12:00,67.0,62.0,30.14,SSE,156,0.0,0.0,84,0.00,,,0.00,,2013-01-15 01:12:00,
2013-01-14 20:22:00,67.0,62.0,30.14,SSE,156,0.0,0.0,84,0.00,,,0.00,,2013-01-15 01:22:00,
2013-01-14 20:32:00,66.0,61.0,30.13,SSE,156,0.0,0.0,85,0.00,,,0.00,,2013-01-15 01:32:00,
2013-01-14 20:43:00,66.0,61.0,30.13,SSE,156,0.0,0.0,85,0.00,,,0.00,,2013-01-15 01:43:00,
2013-01-14 20:52:00,65.0,61.0,30.13,SSE,156,0.0,0.0,86,0.00,,,0.00,,2013-01-15 01:52:00,
2013-01-14 21:02:00,64.0,60.0,30.13,SSE,156,0.0,0.0,87,0.00,,,0.00,,2013-01-15 02:02:00,
2013-01-14 21:12:00,64.0,60.0,30.13,SSE,156,0.0,0.0,87,0.00,,,0.00,,2013-01-15 02:12:00,
2013-01-14 21:23:00,63.0,59.0,30.14,SSE,156,0.0,0.0,87,0.00,,,0.00,,2013-01-15 02:23:00,
2013-01-14 21:32:00,63.0,59.0,30.14,SSE,156,0.0,0.0,88,0.00,,,0.00,,2013-01-15 02:32:00,
2013-01-14 21:42:00,63.0,59.0,30.14,SSE,156,0.0,0.0,88,0.00,,,0.00,,2013-01-15 02:42:00,
2013-01-14 21:53:00,62.0,59.0,30.14,SSE,156,0.0,0.0,90,0.00,,,0.00,,2013-01-15 02:53:00,
2013-01-14 22:02:00,62.0,59.0,30.14,SSE,156,0.0,0.0,90,0.00,,,0.00,,2013-01-15 03:02:00,
2013-01-14 22:12:00,62.0,59.0,30.14,SSE,156,0.0,0.0,90,0.00,,,0.00,,2013-01-15 03:12:00,
2013-01-14 22:22:00,61.0,58.0,30.14,SSE,156,0.0,0.0,91,0.00,,,0.00,,2013-01-15 03:22:00,
2013-01-14 22:33:00,61.0,58.0,30.14,SSE,156,0.0,0.0,91,0.00,,,0.00,,2013-01-15 03:33:00,
2013-01-14 22:42:00,61.0,58.0,30.14,SSE,156,0.0,0.0,91,0.00,,,0.00,,2013-01-15 03:42:00,
2013-01-14 22:53:00,60.0,57.0,30.13,SSE,156,0.0,0.0,91,0.00,,,0.00,,2013-01-15 03:53:00,
2013-01-14 23:02:00,60.0,58.0,30.13,SSE,156,0.0,0.0,92,0.00,,,0.00,,2013-01-15 04:02:00,
2013-01-14 23:12:00,60.0,58.0,30.13,SSE,156,0.0,0.0,92,0.00,,,0.00,,2013-01-15 04:12:00,
2013-01-14 23:22:00,60.0,58.0,30.12,SSE,156,0.0,0.0,92,0.00,,,0.00,,2013-01-15 04:22:00,
2013-01-14 23:32:00,60.0,58.0,30.13,SSE,156,0.0,0.0,92,0.00,,,0.00,,2013-01-15 04:32:00,
2013-01-14 23:42:00,60.0,58.0,30.13,SSE,156,0.0,0.0,92,0.00,,,0.00,,2013-01-15 04:42:00,
2013-01-14 23:52:00,59.0,57.0,30.12,SSE,156,0.0,0.0,93,0.00,,,0.00,,2013-01-15 04:52:00,